Eagle River, WI

8:55 PM CST on February 24, 2017 (GMT -0600)
Eagle River Union

Weather History for KEGV - January, 2013

Change the Weather History Date:

Wednesday, January 9, 2013

  Actual Average Record
Temperature  
Mean Temperature 27 °F -  
Max Temperature 33 °F 22 °F 44 °F (2002)
Min Temperature 19 °F 7 °F -29 °F (2014)
Degree Days  
Heating Degree Days 38    
Moisture  
Dew Point 22 °F    
Average Humidity 71    
Maximum Humidity 93    
Minimum Humidity 56    
Precipitation  
Precipitation 0.00 in - - ()
Sea Level Pressure  
Sea Level Pressure 30.00 in    
Wind  
Wind Speed 15 mph (West)    
Max Wind Speed 29 mph    
Max Gust Speed 40 mph    
Visibility 10 miles    
Events      
Averages and records for this station are not official NWS values.
T = Trace of Precipitation, MM = Missing Value Source: NWS Daily Summary

Daily Weather History Graph

Daily Weather History Graph

Search for Another Location

Airport or City:

Trip Planner

Search our weather history database for the weather conditions in past years. The results will help you decide how hot, cold, wet, or windy it might be!

Date:

Astronomy

Jan. 09, 2013 Rise Set
Actual Time 7:37 AM CST 4:31 PM CST
Civil Twilight 7:03 AM CST 5:05 PM CST
Nautical Twilight 6:26 AM CST 5:42 PM CST
Astronomical Twilight 5:50 AM CST 6:18 PM CST
Moon 5:16 AM CST (1/9) 2:32 PM CST (1/9)
Length of Visible Light 10h 01m
Length of Day
8h 54m
Waning Crescent, 6% of the Moon is Illuminated
Jan 9
Waning Crescent
Jan 11
New
Jan 18
First Quarter
Jan 26
Full
Feb 3
Last Quarter

Hourly Weather History & Observations

Time (CST) Temp. Windchill Dew Point Humidity Pressure Visibility Wind Dir Wind Speed Gust Speed Precip Events Conditions
12:15 AM 32.0 °F 20.8 °F 28.4 °F 87% 29.71 in 10.0 mi WSW 17.3 mph 25.3 mph N/A   Overcast
12:35 AM 32.0 °F 20.8 °F 28.4 °F 87% 29.71 in 10.0 mi WSW 17.3 mph 25.3 mph N/A   Overcast
12:55 AM 32.0 °F 20.1 °F 28.4 °F 87% 29.71 in 10.0 mi WSW 19.6 mph 23.0 mph N/A   Overcast
1:15 AM 32.0 °F 22.1 °F 28.4 °F 87% 29.71 in 10.0 mi West 13.8 mph 18.4 mph N/A   Overcast
1:35 AM 32.0 °F 21.6 °F 28.4 °F 87% 29.72 in 10.0 mi West 15.0 mph 23.0 mph N/A   Overcast
1:55 AM 32.0 °F 22.5 °F 26.6 °F 80% 29.72 in 10.0 mi West 12.7 mph 19.6 mph N/A   Overcast
2:15 AM 32.0 °F 21.6 °F 26.6 °F 80% 29.73 in 10.0 mi West 15.0 mph 20.7 mph N/A   Overcast
2:35 AM 32.0 °F 21.2 °F 26.6 °F 80% 29.74 in 10.0 mi West 16.1 mph 23.0 mph N/A   Overcast
2:55 AM 32.0 °F 20.1 °F 26.6 °F 80% 29.75 in 10.0 mi West 19.6 mph 28.8 mph N/A   Overcast
3:15 AM 32.0 °F 20.5 °F 26.6 °F 80% 29.76 in 10.0 mi WSW 18.4 mph 25.3 mph N/A   Overcast
3:35 AM 32.0 °F 21.6 °F 26.6 °F 80% 29.76 in 10.0 mi West 15.0 mph 21.9 mph N/A   Overcast
3:55 AM 32.0 °F 22.1 °F 26.6 °F 80% 29.75 in 10.0 mi WSW 13.8 mph - N/A   Overcast
4:15 AM 32.0 °F 21.6 °F 26.6 °F 80% 29.75 in 10.0 mi WSW 15.0 mph - N/A   Overcast
4:35 AM 32.0 °F 21.2 °F 26.6 °F 80% 29.75 in 10.0 mi WSW 16.1 mph 21.9 mph N/A   Overcast
4:55 AM 32.0 °F 21.6 °F 26.6 °F 80% 29.77 in 10.0 mi West 15.0 mph 21.9 mph N/A   Overcast
5:15 AM 30.2 °F 20.2 °F 24.8 °F 80% 29.76 in 10.0 mi WSW 12.7 mph 19.6 mph N/A   Mostly Cloudy
5:35 AM 30.2 °F 19.8 °F 24.8 °F 80% 29.76 in 10.0 mi WSW 13.8 mph 19.6 mph N/A   Scattered Clouds
5:55 AM 30.2 °F 20.2 °F 23.0 °F 75% 29.76 in 10.0 mi WSW 12.7 mph - N/A   Clear
6:15 AM 30.2 °F 19.8 °F 24.8 °F 80% 29.76 in 10.0 mi SW 13.8 mph 23.0 mph N/A   Mostly Cloudy
6:35 AM 30.2 °F 18.1 °F 23.0 °F 75% 29.77 in 10.0 mi WSW 18.4 mph 21.9 mph N/A   Mostly Cloudy
6:55 AM 30.2 °F 18.9 °F 24.8 °F 80% 29.78 in 10.0 mi WSW 16.1 mph 25.3 mph N/A   Mostly Cloudy
7:15 AM 32.0 °F 19.8 °F 23.0 °F 69% 29.78 in 10.0 mi West 20.7 mph 29.9 mph N/A   Overcast
7:35 AM 32.0 °F 19.8 °F 23.0 °F 69% 29.79 in 10.0 mi West 20.7 mph 31.1 mph N/A   Overcast
8:15 AM 32.0 °F 21.2 °F 23.0 °F 69% 29.80 in 10.0 mi West 16.1 mph 27.6 mph N/A   Overcast
8:35 AM 32.0 °F 20.1 °F 23.0 °F 69% 29.81 in 10.0 mi West 19.6 mph 28.8 mph N/A   Overcast
8:55 AM 32.0 °F 21.2 °F 23.0 °F 69% 29.82 in 10.0 mi West 16.1 mph 25.3 mph N/A   Overcast
9:15 AM 32.0 °F 20.8 °F 23.0 °F 69% 29.83 in 10.0 mi West 17.3 mph 28.8 mph N/A   Overcast
9:35 AM 32.0 °F 17.9 °F 21.2 °F 64% 29.85 in 10.0 mi West 28.8 mph 40.3 mph N/A   Overcast
9:55 AM 32.0 °F 21.2 °F 21.2 °F 64% 29.87 in 10.0 mi West 16.1 mph 32.2 mph N/A   Overcast
10:15 AM 32.0 °F 19.8 °F 21.2 °F 64% 29.88 in 10.0 mi WNW 20.7 mph 34.5 mph N/A   Overcast
11:35 AM 32.0 °F 19.8 °F 21.2 °F 64% 29.92 in 10.0 mi WNW 20.7 mph 32.2 mph N/A   Overcast
12:15 PM 32.0 °F 22.5 °F 19.4 °F 60% 29.95 in 10.0 mi WNW 12.7 mph 27.6 mph N/A   Mostly Cloudy
12:35 PM 32.0 °F 19.8 °F 19.4 °F 60% 29.96 in 10.0 mi NW 20.7 mph 24.2 mph N/A   Mostly Cloudy
12:55 PM 32.0 °F 20.5 °F 19.4 °F 60% 29.98 in 10.0 mi WNW 18.4 mph 26.5 mph N/A   Mostly Cloudy
1:15 PM 32.0 °F 21.2 °F 19.4 °F 60% 30.00 in 10.0 mi West 16.1 mph 25.3 mph N/A   Overcast
1:35 PM 33.8 °F 24.3 °F 19.4 °F 56% 30.02 in 10.0 mi WNW 13.8 mph 26.5 mph N/A   Overcast
1:55 PM 33.8 °F 22.8 °F 19.4 °F 56% 30.04 in 10.0 mi West 18.4 mph 23.0 mph N/A   Overcast
2:15 PM 32.0 °F 21.2 °F 19.4 °F 60% 30.07 in 10.0 mi West 16.1 mph 26.5 mph N/A   Mostly Cloudy
2:35 PM 33.8 °F 24.8 °F 19.4 °F 56% 30.09 in 10.0 mi West 12.7 mph 24.2 mph N/A   Mostly Cloudy
3:15 PM 32.0 °F 21.2 °F 19.4 °F 60% 30.12 in 10.0 mi West 16.1 mph 23.0 mph N/A   Scattered Clouds
3:35 PM 32.0 °F 21.6 °F 19.4 °F 60% 30.14 in 10.0 mi West 15.0 mph 20.7 mph N/A   Scattered Clouds
3:55 PM 32.0 °F 22.1 °F 19.4 °F 60% 30.15 in 10.0 mi West 13.8 mph 21.9 mph N/A   Clear
4:15 PM 32.0 °F 23.0 °F 19.4 °F 60% 30.16 in 10.0 mi West 11.5 mph 17.3 mph N/A   Clear
4:35 PM 32.0 °F 21.6 °F 19.4 °F 60% 30.18 in 10.0 mi West 15.0 mph 19.6 mph N/A   Clear
4:55 PM 32.0 °F 21.6 °F 19.4 °F 60% 30.20 in 10.0 mi West 15.0 mph 19.6 mph N/A   Clear
5:15 PM 32.0 °F 22.1 °F 19.4 °F 60% 30.20 in 10.0 mi West 13.8 mph 20.7 mph N/A   Clear
5:35 PM 30.2 °F 21.3 °F 19.4 °F 64% 30.20 in 10.0 mi West 10.4 mph - N/A   Clear
5:55 PM 30.2 °F 21.3 °F 19.4 °F 64% 30.22 in 10.0 mi West 10.4 mph - N/A   Clear
6:15 PM 30.2 °F 20.8 °F 19.4 °F 64% 30.24 in 10.0 mi West 11.5 mph - N/A   Clear
6:35 PM 30.2 °F 21.9 °F 19.4 °F 64% 30.24 in 10.0 mi West 9.2 mph - N/A   Clear
6:55 PM 30.2 °F 22.6 °F 19.4 °F 64% 30.25 in 10.0 mi West 8.1 mph - N/A   Clear
7:15 PM 30.2 °F 21.9 °F 19.4 °F 64% 30.26 in 10.0 mi West 9.2 mph - N/A   Clear
7:35 PM 28.4 °F 19.7 °F 19.4 °F 69% 30.27 in 10.0 mi West 9.2 mph - N/A   Clear
7:55 PM 28.4 °F 20.4 °F 19.4 °F 69% 30.27 in 10.0 mi WSW 8.1 mph - N/A   Clear
8:15 PM 28.4 °F 21.2 °F 19.4 °F 69% 30.28 in 10.0 mi WSW 6.9 mph - N/A   Clear
8:35 PM 24.8 °F 16.1 °F 17.6 °F 74% 30.30 in 10.0 mi WSW 8.1 mph - N/A   Clear
8:55 PM 24.8 °F 16.9 °F 17.6 °F 74% 30.31 in 10.0 mi West 6.9 mph - N/A   Clear
9:15 PM 23.0 °F 13.9 °F 15.8 °F 74% 30.32 in 10.0 mi WSW 8.1 mph - N/A   Clear
9:35 PM 23.0 °F 15.8 °F 15.8 °F 74% 30.32 in 10.0 mi WSW 5.8 mph - N/A   Clear
9:55 PM 23.0 °F 18.4 °F 17.6 °F 80% 30.33 in 10.0 mi West 3.5 mph - N/A   Clear
10:15 PM 24.8 °F - 17.6 °F 74% 30.33 in 10.0 mi Calm Calm - N/A   Clear
10:35 PM 21.2 °F - 14.0 °F 74% 30.34 in 10.0 mi Calm Calm - N/A   Clear
10:55 PM 23.0 °F 18.4 °F 17.6 °F 80% 30.34 in 10.0 mi ESE 3.5 mph - N/A   Clear
11:15 PM 21.2 °F - 15.8 °F 80% 30.32 in 10.0 mi Calm Calm - N/A   Clear
11:35 PM 21.2 °F - 17.6 °F 86% 30.32 in 10.0 mi Calm Calm - N/A   Clear
11:55 PM 19.4 °F - 17.6 °F 93% 30.31 in 10.0 mi Calm Calm - N/A   Clear